Change the Weather History Date:

Sunday, March 31, 2013

  Actual Average (KMKC) Record (KMKC)
Temperature  
Mean Temperature 55 °F -  
Max Temperature 66 °F 60 °F 84 °F (2012)
Min Temperature 46 °F 40 °F 30 °F (2004)
Degree Days  
Heating Degree Days 10    
Growing Degree Days 5 (Base 50)    
Moisture  
Dew Point 40 °F    
Average Humidity 67    
Maximum Humidity 100    
Minimum Humidity 28    
Precipitation  
Precipitation 0.00 in - - ()
Sea Level Pressure  
Sea Level Pressure 29.95 in    
Wind  
Wind Speed 6 mph (NW)    
Max Wind Speed 20 mph    
Max Gust Speed 25 mph    
Visibility 6 miles    
Events Fog    
Averages and records for this station are not official NWS values.
T = Trace of Precipitation, MM = Missing Value Source: NWS Daily Summary

Daily Weather History Graph

Daily Weather History Graph

Search for Another Location

Airport or City:

Trip Planner

Search our weather history database for the weather conditions in past years. The results will help you decide how hot, cold, wet, or windy it might be!

Date:

Astronomy

Mar. 31, 2013 Rise Set
Actual Time 7:03 AM CDT 7:40 PM CDT
Civil Twilight 6:36 AM CDT 8:07 PM CDT
Nautical Twilight 6:04 AM CDT 8:39 PM CDT
Astronomical Twilight 5:32 AM CDT 9:11 PM CDT
Moon No Moon Rise 9:54 AM CDT (3/31)
Length of Visible Light 13h 30m
Length of Day
12h 37m
Waning Gibbous, 77% of the Moon is Illuminated
Mar 31
Waning Gibbous
Apr 2
Last Quarter
Apr 10
New
Apr 18
First Quarter
Apr 25
Full

Hourly Weather History & Observations

Time (CDT) Temp. Dew Point Humidity Pressure Visibility Wind Dir Wind Speed Gust Speed Precip Events Conditions
12:20 AM 48.2 °F 46.4 °F 93% 29.92 in 0.2 mi NE 5.8 mph - N/A Fog Fog
12:34 AM 48.2 °F 48.2 °F 100% 29.93 in 0.2 mi NNE 3.5 mph - N/A Fog Fog
12:53 AM 48.9 °F 48.0 °F 97% 29.94 in 0.2 mi Calm Calm - N/A Fog Fog
1:53 AM 50.0 °F 48.9 °F 96% 29.94 in 0.2 mi Calm Calm - N/A Fog Fog
2:53 AM 50.0 °F 48.9 °F 96% 29.94 in 0.2 mi NNW 4.6 mph - N/A Fog Fog
3:53 AM 50.0 °F 48.9 °F 96% 29.94 in 0.2 mi WSW 5.8 mph - N/A Fog Fog
4:16 AM 50.0 °F 48.2 °F 94% 29.93 in 0.5 mi West 5.8 mph - N/A Fog Fog
4:20 AM 50.0 °F 48.2 °F 94% 29.93 in 1.0 mi West 4.6 mph - N/A   Overcast
4:27 AM 50.0 °F 48.2 °F 94% 29.93 in 1.5 mi West 5.8 mph - N/A   Overcast
4:53 AM 48.9 °F 48.0 °F 97% 29.93 in 1.8 mi NW 8.1 mph - N/A   Mostly Cloudy
5:02 AM 48.2 °F 48.2 °F 100% 29.93 in 2.5 mi NW 6.9 mph - N/A   Mostly Cloudy
5:15 AM 50.0 °F 48.2 °F 94% 29.94 in 3.0 mi WNW 8.1 mph - N/A   Scattered Clouds
5:53 AM 48.9 °F 46.0 °F 90% 29.95 in 8.0 mi WNW 9.2 mph - N/A   Scattered Clouds
6:53 AM 48.0 °F 43.0 °F 83% 29.96 in 10.0 mi West 4.6 mph - N/A   Clear
7:53 AM 46.9 °F 43.0 °F 86% 29.98 in 10.0 mi West 3.5 mph - N/A   Scattered Clouds
8:53 AM 52.0 °F 43.0 °F 71% 29.96 in 10.0 mi Calm Calm - N/A   Clear
9:53 AM 57.0 °F 43.0 °F 59% 29.94 in 10.0 mi North 10.4 mph - N/A   Clear
10:53 AM 60.1 °F 41.0 °F 49% 29.95 in 10.0 mi NNW 10.4 mph 19.6 mph N/A   Clear
11:53 AM 62.1 °F 39.0 °F 43% 29.94 in 10.0 mi Variable 5.8 mph - N/A   Clear
1:53 PM 64.9 °F 39.9 °F 40% 29.94 in 10.0 mi WNW 12.7 mph 23.0 mph N/A   Partly Cloudy
2:53 PM 64.9 °F 39.0 °F 39% 29.93 in 10.0 mi NNW 15.0 mph 23.0 mph N/A   Scattered Clouds
3:00 PM 64.4 °F 39.2 °F 40% 29.93 in 10.0 mi NNW 13.8 mph 23.0 mph N/A   Mostly Cloudy
3:53 PM 64.9 °F 36.0 °F 34% 29.94 in 10.0 mi NW 19.6 mph 25.3 mph N/A   Partly Cloudy
4:53 PM 63.0 °F 30.9 °F 30% 29.94 in 10.0 mi NNW 11.5 mph 23.0 mph N/A   Clear
5:53 PM 62.1 °F 30.0 °F 30% 29.94 in 10.0 mi WNW 12.7 mph - N/A   Clear
6:53 PM 59.0 °F 26.1 °F 28% 29.96 in 10.0 mi NW 11.5 mph - N/A   Clear
7:53 PM 55.0 °F 27.0 °F 34% 29.96 in 10.0 mi NNW 4.6 mph - N/A   Clear
8:53 PM 54.0 °F 27.0 °F 35% 29.96 in 10.0 mi Calm Calm - N/A   Clear
9:53 PM 53.1 °F 26.1 °F 35% 29.97 in 10.0 mi Calm Calm - N/A   Clear
10:53 PM 50.0 °F 27.0 °F 41% 29.97 in 10.0 mi NNE 4.6 mph - N/A   Clear
11:53 PM 46.9 °F 28.9 °F 50% 29.99 in 10.0 mi North 5.8 mph - N/A   Clear